Regional Weather Roundup
Issued by NWS Kansas City/Pleasant Hill, MO

Home | Current Version | Previous Version | Graphics & Text | Print | Product List | Glossary Off
Versions: 1 2 3 4 5 6 7 8 9 10 11 12 13 14 15 16 17 18 19 20 21 22 23 24 25 26 27 28 29 30 31 32 33 34 35 36 37 38 39 40 41 42 43 44 45 46 47 48 49 50

919
ASUS43 KEAX 232310
RWREAX

WEATHER ROUNDUP FOR EASTERN KANSAS AND NORTHWEST MISSOURI
NATIONAL WEATHER SERVICE KANSAS CITY/PLEASANT HILL MO
600 PM CDT SAT JUL 23 2016

KSZ040-057-103>105-MOZ028-029-037-043-240000-
...KANSAS CITY METROPOLITAN AREA...

CITY           SKY/WX    TMP DP  RH WIND       PRES   REMARKS
K.C. INTL      CLOUDY    87  76  69 S7        29.87F HX  97
K.C. DOWNTOWN  PTSUNNY   94  72  48 SW9       29.85F HX 102
LEES SUMMIT    SUNNY     93  75  55 SW7       29.89S HX 104
OLATHE - IXD   MOSUNNY   92  73  53 S6        29.88F HX 100
OLATHE - OJC   PTSUNNY   91  72  53 S7        29.89F HX  98
LAWRENCE       CLOUDY    90  74  59 S7        29.86F HX  99

$$

MOZ001>008-011>017-020>025-030>033-038>040-044>046-053-054-240000-
...NORTHERN AND CENTRAL MISSOURI...

CITY           SKY/WX    TMP DP  RH WIND       PRES   REMARKS
ST. JOSEPH     CLOUDY    89  76  65 S15       29.83F HX 100
MOSBY          CLOUDY    91  73  55 S5        29.87S HX 100
WHITEMAN AFB   SUNNY     94  76  55 S12       29.87F HX 106
CLINTON        SUNNY     93  75  55 S6        29.89S HX 104
SEDALIA        SUNNY     95  75  52 S8        29.90F HX 107
WARSAW         NOT AVBL
CHILLICOTHE      N/A     93  76  57 S7        29.87F HX 105
KIRKSVILLE     CLOUDY    91  76  61 S8        29.90F HX 103

$$

MOZ041-047>049-056>058-063>065-088>090-097-240000-
...EASTERN AND SOUTHERN MISSOURI...

CITY           SKY/WX    TMP DP  RH WIND       PRES   REMARKS
ST. LOUIS INTL MOSUNNY   94  73  50 SE8       29.90F HX 103
SPIRIT OF STL  SUNNY     93  75  55 S6        29.88F HX 104
COLUMBIA       SUNNY     94  76  55 S6        29.89F HX 106
JEFFERSON CITY SUNNY     95  73  48 S7        29.87F HX 104
ROLLA          SUNNY     95  73  48 CALM      29.90F HX 104
OSAGE BEACH    SUNNY     95  76  53 SE5       29.90F HX 108
SPRINGFIELD    SUNNY     97  66  36 VRB7      29.91F HX 100
BRANSON        MOSUNNY   95  72  46 CALM      29.93F HX 103
JOPLIN         MOSUNNY   94  74  52 VRB6      29.89F HX 104
WEST PLAINS    CLOUDY    92  72  51 SE6       29.95F HX  99

$$

IAZ060-094-KSZ022-034>040-054-083-096-NEZ052-066-093-240000-
...KANSAS...SOUTHEAST NEBRASKA AND IOWA...

CITY           SKY/WX    TMP DP  RH WIND       PRES   REMARKS
TOPEKA         CLOUDY    91  75  59 SE7       29.85F HX 101
MANHATTAN      CLOUDY    97  70  41 S15G21    29.81F HX 103
EMPORIA        CLOUDY    92  70  48 SE8       29.86F HX  97
CHANUTE        SUNNY     95  70  44 S12       29.86F HX 101
WICHITA        PTSUNNY  100  61  27 S15G21    29.81F HX 101
OMAHA          MOSUNNY   93  75  55 S13G22    29.77F HX 104
LINCOLN        SUNNY     94  75  54 S18       29.77F HX 105
FALLS CITY     CLOUDY    88  76  67 S9        29.81F HX  99
LAMONI         CLOUDY    86  79  79 S9        29.86S HX  99
DES MOINES     MOSUNNY   92  77  61 S10       29.81F HX 105

$$





USA.gov is the U.S. government's official web portal to all federal, state and local government web resources and services.